{"data":{"norad_id":60188,"intl_designator":"2024-124F","name":"STARLINK-11189 [DTC]","alt_names":[],"object_type":"PAYLOAD","status":"ACTIVE","operator":null,"country":"US","launch_date":"2024-07-03","launch_site_code":"AFETR","launch_vehicle":null,"mission":null,"orbit_class":"UNKNOWN","rcs_meters":null,"size_class":null,"mass_kg":null,"dimensions":null,"purposes":["comms"],"wikipedia_slug":null,"has_3d_model":false,"image_url":null,"decayed_at":null,"tle_current":{"epoch":"2026-05-24T23:52:41.348064Z","epoch_age_seconds":89694,"freshness":"FRESH","line1":"1 60188U 24124F   26144.99492301  .00001176  00000+0  14558-4 0  9991","line2":"2 60188  53.1580 145.4672 0000870  88.9250 271.1867 15.69710558108517","mean_motion":15.69710558,"eccentricity":8.7e-5,"inclination_deg":53.158,"raan_deg":145.4672,"arg_perigee_deg":88.925,"mean_anomaly_deg":271.1867,"bstar":1.4558e-5,"rev_number":10851,"period_min":91.736657606147,"perigee_km":359.13895963048,"apogee_km":360.31134764521,"semimajor_km":6737.8621536378,"source":"CELESTRAK","updated_at":"2026-05-25T13:38:19.194159Z"}}}